Weather History for Ithaca, NY

Change the Weather History Date:

Saturday, November 9, 2013

  Actual Average Record
Temperature  
Mean Temperature 38 °F -  
Max Temperature 45 °F 48 °F 72 °F (1931)
Min Temperature 30 °F 32 °F 14 °F (1971)
Degree Days  
Heating Degree Days 28    
Moisture  
Dew Point 26 °F    
Average Humidity 61    
Maximum Humidity 82    
Minimum Humidity 46    
Precipitation  
Precipitation 0.00 in - - ()
Sea Level Pressure  
Sea Level Pressure 30.11 in    
Wind  
Wind Speed 8 mph (South)    
Max Wind Speed 17 mph    
Max Gust Speed 24 mph    
Visibility 10 miles    
Events      
Averages and records for this station are not official NWS values.
T = Trace of Precipitation, MM = Missing Value Source: NWS Daily Summary

Daily Weather History Graph

Daily Weather History Graph

Search for Another Location

Airport:

Trip Planner

Search our weather history database for the weather conditions in past years. The results will help you decide how hot, cold, wet, or windy it might be!

Date:

Astronomy

Nov. 09, 2013 Rise Set
Actual Time 6:49 AM EST 4:49 PM EST
Civil Twilight 6:19 AM EST 5:18 PM EST
Nautical Twilight 5:46 AM EST 5:52 PM EST
Astronomical Twilight 5:13 AM EST 6:25 PM EST
Moon 12:23 PM EST (11/9) 11:18 PM EST (11/9)
Length of Visible Light 10h 59m
Length of Day
9h 59m
Waxing Crescent, 44% of the Moon is Illuminated
Nov 9
Waxing Crescent
Nov 10
First Quarter
Nov 17
Full
Nov 25
Last Quarter
Dec 2
New

Hourly Weather History & Observations

Time (EST) Temp. Windchill Dew Point Humidity Pressure Visibility Wind Dir Wind Speed Gust Speed Precip Events Conditions
12:56 AM 36.0 °F 28.5 °F 25.2 °F 65% 30.24 in 10.0 mi WNW 10.4 mph - N/A   Overcast
1:56 AM 36.0 °F 29.6 °F 25.2 °F 65% 30.24 in 10.0 mi West 8.1 mph - N/A   Overcast
2:56 AM 36.0 °F 30.3 °F 23.0 °F 59% 30.24 in 10.0 mi West 6.9 mph - N/A   Overcast
3:56 AM 34.0 °F - 26.1 °F 73% 30.24 in 10.0 mi Calm Calm - N/A   Overcast
4:56 AM 31.1 °F 26.4 °F 26.1 °F 82% 30.25 in 10.0 mi East 4.6 mph - N/A   Mostly Cloudy
5:56 AM 30.0 °F 26.5 °F 25.2 °F 82% 30.25 in 10.0 mi SSE 3.5 mph - N/A   Clear
6:27 AM 30.2 °F 26.7 °F 24.8 °F 80% 30.21 in 10.0 mi SSE 3.5 mph - N/A   Clear
6:56 AM 32.0 °F 27.5 °F 26.1 °F 79% 30.24 in 10.0 mi Variable 4.6 mph - N/A   Scattered Clouds
7:56 AM 34.9 °F 30.8 °F 27.1 °F 73% 30.26 in 10.0 mi South 4.6 mph - N/A   Mostly Cloudy
8:56 AM 36.0 °F 31.1 °F 28.0 °F 73% 30.25 in 10.0 mi SSW 5.8 mph - N/A   Overcast
9:56 AM 36.9 °F 30.7 °F 28.0 °F 70% 30.24 in 10.0 mi SW 8.1 mph - N/A   Mostly Cloudy
10:56 AM 41.9 °F 36.9 °F 28.0 °F 58% 30.19 in 10.0 mi SW 8.1 mph - N/A   Overcast
11:56 AM 43.9 °F 38.3 °F 27.1 °F 52% 30.13 in 10.0 mi South 10.4 mph - N/A   Overcast
12:56 PM 43.9 °F 36.8 °F 26.1 °F 50% 30.09 in 10.0 mi South 15.0 mph - N/A   Overcast
1:56 PM 45.0 °F 39.3 °F 26.1 °F 48% 30.04 in 10.0 mi South 11.5 mph - N/A   Mostly Cloudy
2:56 PM 43.9 °F 36.2 °F 25.2 °F 48% 30.00 in 10.0 mi South 17.3 mph 21.9 mph N/A   Overcast
3:56 PM 43.9 °F 37.5 °F 24.1 °F 46% 30.00 in 10.0 mi South 12.7 mph 20.7 mph N/A   Overcast
4:56 PM 41.9 °F 33.7 °F 25.2 °F 52% 29.98 in 10.0 mi South 17.3 mph 24.2 mph N/A   Mostly Cloudy
5:56 PM 41.9 °F 35.9 °F 26.1 °F 53% 29.99 in 10.0 mi South 10.4 mph - N/A   Mostly Cloudy
6:56 PM 43.0 °F 36.8 °F 27.1 °F 54% 29.99 in 10.0 mi South 11.5 mph - N/A   Overcast
7:56 PM 43.0 °F 38.8 °F 27.1 °F 54% 29.96 in 10.0 mi South 6.9 mph 18.4 mph N/A   Overcast
8:56 PM 43.0 °F 37.2 °F 27.1 °F 54% 29.95 in 10.0 mi South 10.4 mph - N/A   Overcast
9:56 PM 43.9 °F 39.3 °F 27.1 °F 52% 29.91 in 10.0 mi South 8.1 mph - N/A   Overcast
10:56 PM 43.9 °F 38.8 °F 27.1 °F 52% 29.88 in 10.0 mi South 9.2 mph - N/A   Overcast
11:56 PM 43.9 °F 39.9 °F 27.1 °F 52% 29.87 in 10.0 mi South 6.9 mph - N/A   Overcast